[[[{"header":{"parameterUnit":"kt","parameterCategory":2,"dx":1,"dy":1,"la1":30.253999710083008,"la2":30.299108505249023,"lo1":-89.0895004272461,"lo2":-89.04439544677734,"nx":28,"ny":28,"refTime":"2022-10-25T21:00:00:Z","depth":0,"parameterNumber":1,"parameterNumberName":"U-component_of_WINDS"},"data":[5.8915,5.9006,5.9008,5.9114,5.9133,5.9204,5.923,5.9264,5.9291,5.9376,5.9425,5.9435,5.9461,5.9519,5.9571,5.9574,5.9596,5.9629,5.9626,5.9479,5.9458,5.9439,5.9417,5.9634,5.9635,5.9778,5.978,5.9781,5.8812,5.8833,5.8888,5.8943,5.8991,5.8961,5.9001,5.9043,5.9107,5.914,5.9188,5.9262,5.932,5.9334,5.939,5.9432,5.942,5.9447,5.9443,5.9448,5.9291,5.9268,5.9457,5.9457,5.9457,5.9457,5.9457,5.9456,5.8625,5.868,5.8713,5.8773,5.8801,5.8837,5.8889,5.8899,5.8952,5.901,5.8999,5.9071,5.9103,5.9168,5.9189,5.9245,5.9214,5.9243,5.925,5.9257,5.9266,5.906,5.9254,5.9254,5.9253,5.9253,5.9252,0,5.8488,5.8486,5.8538,5.8591,5.8635,5.8675,5.8712,5.8744,5.8734,5.8778,5.8842,5.8878,5.895,5.9008,5.9059,5.9074,5.9044,5.904,5.906,5.9066,5.9067,5.9068,5.8812,5.9034,5.9032,5.903,5.9029,5.9029,5.83,5.8362,5.8396,5.8432,5.8452,5.8511,5.8546,5.8532,5.857,5.8612,5.866,5.8718,5.8764,5.8864,5.8872,5.8924,5.8909,5.8994,5.8916,5.8922,5.891,5.8906,5.8913,5.9009,5.9011,5.9013,5.9015,0,5.8194,5.8193,5.8289,5.8314,5.8322,5.8388,5.8409,5.8462,5.8464,5.8537,5.8553,5.8555,5.8616,5.861,5.8677,5.8671,5.8781,5.8765,5.8771,5.8767,5.8843,5.8836,5.9088,5.9121,5.8896,5.8898,5.89,0,5.8031,5.8113,5.8106,5.8162,5.8253,5.8236,5.8326,5.8336,5.8361,5.8418,5.8383,5.8437,5.8418,5.8472,5.8463,5.8551,5.8563,5.8564,5.856,5.8567,5.8567,5.8584,5.8573,5.855,5.8548,5.8547,5.8546,0,5.7864,5.7955,5.8046,5.8066,5.8099,5.8141,5.8157,5.8184,5.8217,5.8258,5.828,5.8329,5.8356,5.8395,5.8383,5.8331,5.849,5.8415,5.849,5.8491,5.8524,5.8522,5.8749,5.8545,5.8544,5.8544,5.8543,0,5.7731,5.7774,5.7905,5.7932,5.7956,5.8015,5.8062,5.8111,5.8141,5.814,5.8172,5.8146,5.8221,5.8148,5.8251,5.8187,5.8215,5.8222,5.8228,5.8232,5.815,5.8278,5.8496,5.8518,5.824,5.8237,5.8235,0,5.7541,5.7671,5.7657,5.7781,5.7839,5.7795,5.786,5.7887,5.789,5.794,5.7942,5.7999,5.7942,5.7958,5.8011,5.8015,5.8099,5.8003,5.8074,5.8077,5.8068,5.8269,5.8302,5.845,5.8202,5.8206,5.8208,0,5.7392,5.743,5.7453,5.7474,5.7507,5.7555,5.7629,5.7681,5.7715,5.7748,5.781,5.7888,5.7849,5.7875,5.7857,5.7912,5.8042,5.7862,5.7862,5.7894,5.8185,5.8217,5.8242,5.8018,5.8022,5.8025,5.8183,0,5.7193,5.7256,5.7318,5.7364,5.74,5.7476,5.7466,5.7505,5.7485,5.7485,5.7574,5.7591,5.7642,5.7667,5.7646,5.7774,5.7751,5.7707,5.7633,5.7765,5.7817,5.7838,5.7558,5.7555,5.7554,5.7552,0,0,5.7011,5.71,5.7079,5.7149,5.7178,5.7128,5.721,5.7232,5.7275,5.7296,5.7255,5.7367,5.7381,5.7491,5.7531,5.7551,5.7573,5.7526,5.7703,5.7719,5.7735,5.779,5.7812,5.7549,5.7548,5.7547,5.7547,0,5.6935,5.6952,5.7034,5.7055,5.7086,5.7081,5.7101,5.7121,5.7124,5.7211,5.7167,5.7219,5.7306,5.7328,5.7351,5.7514,5.7476,5.753,5.7621,5.7684,5.7703,5.772,5.7779,5.78,5.7542,5.7542,5.7542,0,5.6786,5.6802,5.6839,5.69,5.6919,5.6979,5.69,5.6966,5.701,5.6948,5.7034,5.7042,5.7069,5.7173,5.7219,5.7182,5.7388,5.732,5.7332,5.7336,5.7396,5.7419,5.744,5.7166,5.7165,5.7164,0,0,5.6721,5.6779,5.6789,5.6883,5.6898,5.6891,5.692,5.6902,5.6928,5.6939,5.6946,5.6973,5.7023,5.7057,5.7104,5.7219,5.7223,5.7274,5.7292,5.7307,5.7319,5.7382,5.7405,5.7159,5.7159,5.7159,0,0,5.6689,5.6705,5.668,5.6787,5.6814,5.6828,5.6886,5.6855,5.6895,5.6885,5.6856,5.6861,5.6958,5.6966,5.6904,5.7077,5.7004,5.7018,5.7067,5.709,5.7107,5.7102,5.6823,0,0,0,0,0,5.6605,5.6703,5.668,5.6696,5.6771,5.6842,5.6851,5.683,5.678,5.6826,5.6828,5.6785,5.6927,5.6872,5.6888,5.6956,5.7098,5.7109,5.7119,5.721,5.7233,5.7253,0,0,0,0,0,0,5.6611,5.6631,5.6677,5.6696,5.6713,5.6838,5.6748,5.6745,5.6774,5.6765,5.6786,5.6785,5.6767,5.6862,5.6877,5.6942,5.6818,5.7102,5.7111,5.712,5.7218,5.7237,5.7253,0,0,0,0,0,5.6616,5.6632,5.6757,5.6695,5.6709,5.6705,5.6744,5.6741,5.6763,5.6764,5.6762,5.6744,5.677,5.6781,5.6871,5.6936,5.6807,5.6813,5.7108,5.7115,5.7122,5.7227,0,0,0,0,0,0,5.662,5.6629,5.6759,5.6763,5.6655,5.6697,5.6703,5.6738,5.6759,5.6759,5.672,5.6713,5.6773,5.6781,5.6789,5.6935,5.6799,5.6804,5.6808,5.7114,5.7119,5.7124,0,0,0,0,0,0,5.662,5.6633,5.6761,5.6713,5.671,5.669,5.6695,5.6768,5.676,5.6714,5.6709,5.6717,5.6759,5.6781,5.6788,5.6901,5.6792,5.6798,5.6801,5.6804,5.7118,5.7123,0,0,0,0,0,0,5.6625,5.6635,5.6711,5.671,5.6708,5.6746,5.6753,5.683,5.672,5.6714,5.671,5.6705,5.6761,5.6767,5.6787,5.6898,5.69,5.6792,5.6796,5.6799,5.6801,0,0,0,0,0,0,0,5.6629,5.6564,5.6739,5.6708,5.6705,5.6796,5.6797,5.6798,5.6719,5.6715,5.6711,5.6707,5.6761,5.6767,5.6773,5.6895,0,0,5.6792,5.6795,0,0,0,0,0,0,0,0,5.6559,5.6563,5.6739,5.6739,5.674,5.6796,5.6797,5.6797,5.6719,5.6715,5.6712,5.6708,5.6763,5.6768,5.6773,0,0,0,0,0,0,0,0,0,0,0,0,0,0,0,5.6739,5.6739,0,5.6796,5.6797,5.6797,5.6718,5.6715,5.6712,5.671,5.6764,5.6768,5.6772,0,0,0,0,0,0,0,0,0,0,0,0,0,0,0,0,0,0,0,0,0,0,0,0,0,0,0,0,0,0,0,0,0,0,0,0,0,0,0,0,0,0,0,0,0,0,0,0,0,0,0,0,0,0,0,0,0,0,0,0,0,0,0,0,0,0,0,0,0]}],[{"header":{"parameterUnit":"kt","parameterCategory":2,"dx":1,"dy":1,"la1":30.253999710083008,"la2":30.299108505249023,"lo1":-89.0895004272461,"lo2":-89.04439544677734,"nx":28,"ny":28,"refTime":"2022-10-25T21:00:00:Z","depth":0,"parameterNumber":2,"parameterNumberName":"V-component_of_WINDS"},"data":[-12.9842,-13.0141,-13.0194,-13.0558,-13.0666,-13.0924,-13.1032,-13.1177,-13.1304,-13.1615,-13.1802,-13.1882,-13.2027,-13.2261,-13.2464,-13.2494,-13.2577,-13.2646,-13.267,-13.2316,-13.227,-13.2226,-13.216,-13.2663,-13.2664,-13.3029,-13.3033,-13.3035,-12.958,-12.9691,-12.9899,-13.0136,-13.0314,-13.028,-13.0464,-13.0614,-13.0844,-13.1003,-13.119,-13.1466,-13.1689,-13.1813,-13.2035,-13.2174,-13.2169,-13.223,-13.2221,-13.2244,-13.1868,-13.1797,-13.2231,-13.2231,-13.2231,-13.2231,-13.2231,-13.223,-12.9118,-12.9295,-12.9469,-12.9695,-12.9828,-12.9985,-13.0162,-13.0257,-13.0459,-13.07,-13.072,-13.0979,-13.1146,-13.1437,-13.1546,-13.1748,-13.1688,-13.177,-13.1791,-13.1811,-13.1828,-13.1296,-13.1787,-13.1786,-13.1785,-13.1784,-13.1783,0,-12.8796,-12.8828,-12.903,-12.9249,-12.9416,-12.959,-12.9756,-12.9867,-12.9947,-13.011,-13.035,-13.0496,-13.0783,-13.1013,-13.1231,-13.1327,-13.1304,-13.1307,-13.1364,-13.136,-13.1329,-13.135,-13.0735,-13.1292,-13.1288,-13.1285,-13.1283,-13.1281,-12.8334,-12.8534,-12.874,-12.8875,-12.8979,-12.9195,-12.9334,-12.939,-12.9535,-12.9746,-12.9898,-13.0129,-13.0317,-13.0689,-13.0793,-13.1007,-13.0998,-13.1205,-13.1029,-13.1017,-13.1003,-13.0991,-13.1012,-13.1238,-13.1244,-13.1248,-13.1252,0,-12.807,-12.8153,-12.8478,-12.866,-12.8712,-12.8918,-12.9073,-12.925,-12.9322,-12.9575,-12.9637,-12.9749,-12.9982,-13.0053,-13.0332,-13.0362,-13.0699,-13.0684,-13.0643,-13.0645,-13.0838,-13.082,-13.1454,-13.154,-13.1018,-13.1023,-13.1027,0,-12.7709,-12.7968,-12.8076,-12.826,-12.855,-12.8599,-12.8884,-12.8973,-12.9118,-12.9318,-12.9304,-12.9492,-12.9553,-12.9751,-12.9795,-13.0084,-13.0135,-13.0175,-13.0184,-13.0178,-13.0173,-13.0254,-13.023,-13.0194,-13.0191,-13.0188,-13.0185,0,-12.7287,-12.7647,-12.7947,-12.8042,-12.8261,-12.84,-12.8497,-12.8658,-12.8793,-12.8979,-12.9067,-12.9278,-12.9394,-12.9557,-12.9613,-12.9491,-12.9966,-12.981,-13.0007,-13.0006,-13.0109,-13.0102,-13.0645,-13.0181,-13.018,-13.0179,-13.0178,0,-12.7007,-12.7197,-12.7619,-12.7801,-12.7893,-12.8089,-12.8303,-12.8487,-12.8658,-12.8699,-12.8845,-12.8844,-12.9101,-12.8941,-12.9296,-12.9122,-12.9236,-12.9298,-12.9313,-12.9341,-12.916,-12.9459,-12.9968,-13.0025,-12.9366,-12.9359,-12.9353,0,-12.6503,-12.6949,-12.6995,-12.7393,-12.7609,-12.7581,-12.78,-12.7951,-12.8024,-12.8217,-12.8296,-12.8514,-12.841,-12.8488,-12.8654,-12.8744,-12.897,-12.8715,-12.899,-12.8999,-12.8948,-12.9417,-12.9476,-12.9849,-12.9268,-12.9277,-12.9283,0,-12.6121,-12.6386,-12.6454,-12.6564,-12.6773,-12.6953,-12.7204,-12.7431,-12.7557,-12.7727,-12.7939,-12.8245,-12.818,-12.8308,-12.8328,-12.8497,-12.8818,-12.8403,-12.8408,-12.8476,-12.923,-12.9285,-12.9347,-12.8794,-12.8804,-12.8813,-12.9215,0,-12.5683,-12.5916,-12.6103,-12.6345,-12.6495,-12.6747,-12.6825,-12.6972,-12.6978,-12.7049,-12.7359,-12.75,-12.7729,-12.7817,-12.7822,-12.8187,-12.8137,-12.8064,-12.7913,-12.822,-12.8355,-12.8409,-12.7707,-12.7703,-12.7699,-12.7697,0,0,-12.518,-12.5515,-12.5556,-12.5801,-12.5931,-12.5896,-12.6159,-12.628,-12.6525,-12.6615,-12.6531,-12.6984,-12.7101,-12.7469,-12.7571,-12.7662,-12.7735,-12.7624,-12.8073,-12.8115,-12.8153,-12.8296,-12.8352,-12.7691,-12.7689,-12.7688,-12.7687,0,-12.5036,-12.516,-12.542,-12.5548,-12.5739,-12.5802,-12.5864,-12.6046,-12.6103,-12.6407,-12.6372,-12.6566,-12.6925,-12.7055,-12.7168,-12.7582,-12.7543,-12.7645,-12.7844,-12.8036,-12.8082,-12.8123,-12.8272,-12.8325,-12.7679,-12.7679,-12.768,0,-12.4675,-12.481,-12.4944,-12.5236,-12.5359,-12.5581,-12.5443,-12.5683,-12.5847,-12.5793,-12.6095,-12.6183,-12.6361,-12.6698,-12.6852,-12.678,-12.7365,-12.7193,-12.7216,-12.7235,-12.7425,-12.748,-12.7529,-12.688,-12.6877,-12.6874,0,0,-12.454,-12.4756,-12.4916,-12.521,-12.5291,-12.5388,-12.5512,-12.5531,-12.5693,-12.5758,-12.587,-12.6028,-12.6237,-12.6373,-12.6573,-12.6932,-12.6973,-12.7091,-12.7129,-12.716,-12.7194,-12.7393,-12.7448,-12.6863,-12.6862,-12.6862,0,0,-12.4474,-12.4673,-12.465,-12.5001,-12.5158,-12.5334,-12.551,-12.5485,-12.5673,-12.5653,-12.5692,-12.5736,-12.6052,-12.6138,-12.5975,-12.6521,-12.637,-12.6411,-12.6453,-12.6501,-12.6539,-12.6511,-12.5851,0,0,0,0,0,-12.4367,-12.4648,-12.4626,-12.4696,-12.5063,-12.5347,-12.5394,-12.5434,-12.5328,-12.5467,-12.5556,-12.5506,-12.6058,-12.5914,-12.5982,-12.6164,-12.6713,-12.6739,-12.6764,-12.6903,-12.6953,-12.6996,0,0,0,0,0,0,-12.4395,-12.4481,-12.4618,-12.4805,-12.4888,-12.5337,-12.5166,-12.5184,-12.5314,-12.5301,-12.5491,-12.5513,-12.5551,-12.5882,-12.5943,-12.6115,-12.583,-12.6723,-12.6746,-12.6766,-12.692,-12.6961,-12.6996,0,0,0,0,0,-12.4417,-12.4486,-12.5065,-12.4801,-12.4874,-12.4995,-12.5155,-12.517,-12.527,-12.5409,-12.5429,-12.5289,-12.5554,-12.5608,-12.5918,-12.6087,-12.5789,-12.5811,-12.6738,-12.6756,-12.6772,-12.6941,0,0,0,0,0,0,-12.4434,-12.4501,-12.508,-12.5103,-12.4698,-12.4971,-12.5015,-12.5157,-12.5371,-12.5394,-12.5208,-12.5195,-12.5561,-12.5601,-12.5643,-12.6075,-12.5754,-12.5777,-12.5792,-12.6751,-12.6765,-12.6778,0,0,0,0,0,0,-12.4464,-12.4521,-12.5092,-12.4959,-12.4968,-12.4948,-12.4988,-12.5255,-12.5374,-12.5158,-12.5153,-12.5199,-12.5497,-12.5598,-12.563,-12.6047,-12.5728,-12.575,-12.5765,-12.5775,-12.6763,-12.6774,0,0,0,0,0,0,-12.4488,-12.4538,-12.4953,-12.496,-12.4967,-12.5232,-12.5185,-12.5558,-12.5263,-12.5148,-12.5237,-12.5225,-12.5496,-12.5528,-12.5621,-12.6025,-12.6041,-12.5729,-12.5744,-12.5755,-12.5762,0,0,0,0,0,0,0,-12.4509,-12.4171,-12.4942,-12.4961,-12.4966,-12.5319,-12.5326,-12.5332,-12.526,-12.525,-12.524,-12.523,-12.5604,-12.5628,-12.5652,-12.6007,0,0,-12.5727,-12.5738,0,0,0,0,0,0,0,0,-12.4151,-12.4166,-12.4943,-12.4947,-12.4952,-12.532,-12.5326,-12.5331,-12.5259,-12.525,-12.5242,-12.5234,-12.561,-12.5629,-12.5649,0,0,0,0,0,0,0,0,0,0,0,0,0,0,0,-12.4943,-12.4947,0,-12.5321,-12.5325,-12.533,-12.5257,-12.5251,-12.5244,-12.5237,-12.5616,-12.5631,-12.5648,0,0,0,0,0,0,0,0,0,0,0,0,0,0,0,0,0,0,0,0,0,0,0,0,0,0,0,0,0,0,0,0,0,0,0,0,0,0,0,0,0,0,0,0,0,0,0,0,0,0,0,0,0,0,0,0,0,0,0,0,0,0,0,0,0,0,0,0,0]}]]]